Location: Eaton Estates
(41.3089°N, 82.0057°W)
Time: 19:48:34
(UTC+00:00)

Cosmos 2123 Rocket - Pass Details

Date: 21 October 2021
Orbit: 961 x 992 km, 82.9° (Epoch: 03 December)

Event Time Altitude Azimuth Distance (km) Brightness Sun altitude
Rises 23:36:33 0° 355° (N) 3,716 7.1 -11.7°
Reaches altitude 10° 23:39:07 10° 358° (N) 2,762 6.4 -12.2°
Maximum altitude 23:45:25 65° 80° (E) 1,085 4.0 -13.4°
Drops below altitude 10° 23:51:38 10° 162° (SSE) 2,729 6.2 -14.6°
Sets 23:54:09 0° 165° (SSE) 3,669 6.9 -15.0°
